Flag for Congo Dem.Rep. Weather past 2 weeks in Kinshasa, Congo Dem.Rep.

Now
73 °F

Passing clouds.


Feels Like: 70 °F
Forecast: 74 / 90 °F
Wind: 2 mph from Southwest

Location: Brazzaville / Maya-Maya

Current Time: Apr 18, 2015 at 6:21:51 AM

Latest Report: Apr 18, 2015 at 5:00 AM


Visibility: 5 mi

Pressure: 29.95 "Hg

Humidity: 94%

Dew point: 72 °F

Location of KinshasaLocation

Historic Weather in Kinshasa — Graph

°F

Kinshasa temperature yesterday

Maximum temperature yesterday: 90 °F (at 2:00 PM)
Minimum temperature yesterday: 75 °F (at 2:00 AM)
Average temperature yesterday: 81 °F

Past Weeks' High & Low Weather Summary

 TemperatureHumidityPressure
High95 °F (Apr 6, 3:00 PM)100% (Apr 13, 6:00 AM)30.01 "Hg (Apr 13, 6:00 AM)
Low70 °F (Apr 5, 5:00 AM)32% (Apr 7, 1:00 PM)29.77 "Hg (Apr 3, 4:00 PM)
Average80 °F73%29.90 "Hg
* Reported Apr 3 5:00 AM — Apr 18 5:00 AM, Kinshasa, Weather by CustomWeather, © 2015

Note: Actual official high and low records may vary slightly from our data, if they occured in-between our weather recording intervals... More about our weather records

Advertising

Kinshasa weather history for previous 24 hours

 ConditionsComfort  
Time TempWeatherWind HumidityBarometerVisibility
5:00 AM
Sat, Apr 18
73 °FPassing clouds.2 mph94%29.95 "Hg5 mi
4:00 AM75 °FPassing clouds.5 mph89%29.95 "Hg5 mi
3:00 AM75 °FThunderstorms. Passing clouds.1 mph89%29.95 "Hg5 mi
2:00 AM75 °FThunderstorms. Passing clouds.5 mph83%29.95 "Hg5 mi
1:00 AM75 °FThunderstorms. Passing clouds.7 mph89%29.95 "Hg5 mi
12:00 AM77 °FThunderstorms. Passing clouds.5 mph79%29.98 "Hg5 mi
11:00 PM
Fri, Apr 17
79 °FThunderstorms. Passing clouds.2 mph70%29.95 "Hg5 mi
10:00 PM79 °FThunderstorms. Passing clouds.3 mph70%29.98 "Hg5 mi
9:00 PM79 °FThunderstorms. Passing clouds.14 mph79%29.98 "Hg5 mi
8:00 PM82 °FThunderstorms. Passing clouds.3 mph74%29.92 "Hg5 mi
7:00 PM84 °FPassing clouds.1 mph66%29.89 "Hg5 mi
6:00 PM86 °FPassing clouds.1 mph59%29.89 "Hg5 mi
5:00 PM86 °FPassing clouds.10 mph59%29.83 "HgN/A
4:00 PM90 °FPassing clouds.7 mph52%29.83 "HgN/A
3:00 PM90 °FScattered clouds.6 mph55%29.83 "HgN/A
2:00 PM90 °FScattered clouds.5 mph55%29.89 "HgN/A
1:00 PM88 °FScattered clouds.6 mph62%29.95 "Hg5 mi
12:00 PM86 °FScattered clouds.5 mph66%29.98 "Hg5 mi
11:00 AM82 °FPartly sunny.3 mph74%30.01 "Hg5 mi
10:00 AM82 °FPartly sunny.5 mph74%30.01 "Hg5 mi
9:00 AM81 °FPartly sunny.3 mph74%30.01 "Hg5 mi
8:00 AM79 °FPartly sunny.No wind79%30.01 "Hg5 mi
7:00 AM75 °FPartly sunny.No wind89%29.98 "Hg5 mi
6:00 AM75 °FPassing clouds.No wind89%29.95 "Hg5 mi
Weather by CustomWeather, © 2015

See weather overviewHow to use our weather pages